Location: Alsip
(41.6689°N, 87.7387°W)
Time: 12:57:56
(UTC+00:00)

Cosmos 1666 - Pass Details

Date: 14 July 2020
Orbit: 496 x 521 km, 82.5° (Epoch: 04 August)

Event Time Altitude Azimuth Distance (km) Brightness Sun altitude
Exits shadow 07:32:39 30° 106° (ESE) 928 4.0 -23.0°
Maximum altitude 07:33:07 31° 91° (E) 906 4.1 -22.9°
Drops below altitude 10° 07:36:28 10° 29° (NNE) 1,722 6.5 -22.7°
Sets 07:38:44 0° 19° (NNE) 2,607 7.7 -22.5°
